Location: Milton
(43.5183°N, 79.8775°W)
Time: 08:42:21
(UTC+00:00)

UNISAT 6 - Pass Details

Date: 24 March 2023
Orbit: 599 x 680 km, 97.7° (Epoch: 02 June)

Event Time Altitude Azimuth Distance (km) Brightness Sun altitude
Rises 10:07:49 0° 168° (SSE) 2,866 ? -13.0°
Reaches altitude 10° 10:09:58 10° 169° (S) 1,976 ? -12.7°
Maximum altitude 10:14:16 83° 258° (WSW) 640 ? -11.9°
Drops below altitude 10° 10:18:43 10° 346° (NNW) 2,042 ? -11.1°
Sets 10:20:58 0° 347° (NNW) 2,970 ? -10.7°
